Weather observations for the past three days for
Fairfield / Travis Air Force Base
Imperial (Metric)
Date Time (pdt) Wind (mph) Vis. (mi.) Weather Sky Cond. Temperature (ºF) Relative Humidity Wind Chill (°F) Heat Index (°F) Pressure Precipitation (in)
Air Dwpt 6 hour altimeter (in) sea level (mb) 1 hr 3 hr 6 hr
Max. Min.
18 07:55 SW 10 10.00 Fair CLR 65.8 55.8 70% 29.95 1014.8
18 06:55 SW 9 10.00 Fair CLR 61.2 55.6 82% 29.93 1014.2
18 05:55 SW 10 10.00 Fair CLR 59 54.9 86% 29.92 1013.8
18 04:55 W 13 10.00 Fair CLR 60.1 55.2 66.2 59.9 84% 29.91 1013.5
18 03:55 SW 14 10.00 Fair CLR 60.4 55.6 84% 29.91 1013.5
18 02:55 SW 15 10.00 Fair CLR 61.5 55.2 80% 29.9 1013.1
18 01:55 SW 13 10.00 Fair CLR 61.3 55.8 82% 29.9 1013.1
18 00:55 SW 16 10.00 Fair CLR 63.1 55.4 76% 29.9 1013.1
17 23:55 SW 17 10.00 Fair CLR 64.4 55.6 73% 29.91 1013.5
17 22:55 SW 16 10.00 Fair CLR 66.2 53.6 89.2 66.2 64% 29.91 1013.5
17 21:55 SW 15 10.00 Fair CLR 68.9 54.5 60% 29.91 1013.5
17 20:55 SW 16 10.00 Fair CLR 71.1 55.9 59% 29.9 1013.1
17 19:55 SW 18 10.00 Fair CLR 76.6 55.4 48% 78 29.89 1012.8
17 18:55 W 20 10.00 Fair CLR 82 55.9 41% 82 29.89 1012.8
17 17:55 SW 21 10.00 Fair and Breezy CLR 86.7 54.9 34% 85 29.9 1013.1
17 16:55 SW 20 10.00 Fair CLR 89.1 54.5 90.3 73.2 31% 87 29.91 1013.5
17 15:55 SW 14 10.00 Fair CLR 88.9 54.3 31% 87 29.94 1014.5
17 14:55 SW 10 10.00 Fair CLR 88.2 52.7 30% 86 29.95 1014.8
17 13:55 SW 10 10.00 A Few Clouds FEW200 84.7 53.2 34% 83 29.97 1015.5
17 12:55 W 10 10.00 Fair CLR 81 52.2 37% 80 29.99 1016.2
17 11:55 SW 10 10.00 Fair CLR 76.6 51.1 41% 78 30 1016.5
17 09:55 SW 9 10.00 Fair CLR 69.1 51.8 54% 30 1016.5
17 08:10 SW 15 10.00 Fair CLR 62.4 52.5 70% 30 1016.5
17 07:55 W 17 10.00 Fair CLR 61 52.3 73% 29.99 1016.2
17 06:55 W 20 10.00 Fair CLR 57.6 52.3 83% 29.97 1015.5
17 05:55 SW 18 10.00 Fair CLR 56.1 52 86% 29.95 1014.9
17 03:55 SW 23 10.00 Fair and Breezy CLR 56.1 52 86% 29.93 1014.2
17 02:55 SW 22 10.00 Fair and Breezy CLR 56.5 51.4 83% 29.93 1014.2
17 01:55 SW 25 10.00 Fair and Breezy CLR 57 51.3 81% 29.94 1014.5
17 00:55 SW 21 10.00 Fair and Breezy CLR 57.2 50.7 79% 29.94 1014.5
16 23:55 SW 18 10.00 Fair CLR 57.7 50.5 77% 29.94 1014.5
16 22:55 SW 18 10.00 Fair CLR 58.3 50 81 58.3 74% 29.94 1014.5
16 21:55 SW 21 10.00 Fair and Breezy CLR 60.1 49.8 69% 29.94 1014.5
16 20:55 SW 25 G 30 10.00 Fair and Breezy CLR 63.5 48.9 59% 29.93 1014.2
16 19:55 W 24 G 31 10.00 Fair and Breezy CLR 68.9 49.5 50% 29.92 1013.8
16 18:55 W 23 10.00 Fair and Breezy CLR 73.2 49.3 43% 29.91 1013.5
16 17:55 SW 25 G 32 10.00 Fair and Breezy CLR 77.9 50.9 39% 79 29.9 1013.1
16 16:55 W 26 G 35 10.00 Fair and Windy CLR 81 50 85.3 73.4 34% 80 29.91 1013.5
16 15:55 W 25 G 31 10.00 Fair and Breezy CLR 84.2 48.4 29% 82 29.91 1013.5
16 14:55 W 22 G 28 10.00 A Few Clouds and Breezy FEW210 84 48.4 29% 82 29.93 1014.2
16 13:55 W 17 G 25 10.00 A Few Clouds FEW180 FEW200 81.9 48.2 31% 80 29.95 1014.8
16 12:55 W 20 10.00 A Few Clouds FEW200 80.1 49.1 34% 80 29.96 1015.2
16 11:55 W 26 10.00 Fair and Windy CLR 76.3 49.5 39% 78 29.95 1014.8
16 10:55 SW 26 G 31 10.00 Fair and Windy CLR 73.2 50.5 73.2 56.8 45% 29.95 1014.8
16 09:55 SW 23 G 29 10.00 Fair and Breezy CLR 69.4 50.5 51% 29.96 1015.2
16 08:55 SW 25 G 31 10.00 Fair and Breezy CLR 64.4 51.1 62% 29.95 1014.9
16 07:55 SW 24 10.00 Fair and Breezy CLR 61.2 50.2 67% 29.95 1014.9
16 06:55 SW 22 10.00 Fair and Breezy CLR 58.1 49.8 74% 29.94 1014.5
16 05:55 SW 24 10.00 Fair and Breezy CLR 57.2 49.3 75% 29.92 1013.8
16 04:55 SW 25 10.00 Fair and Breezy CLR 57.6 48.9 65.1 57.2 73% 29.9 1013.1
16 03:55 SW 21 10.00 Fair and Breezy CLR 57.9 49.6 74% 29.9 1013.1
16 02:55 SW 22 10.00 Fair and Breezy CLR 57.9 49.3 73% 29.9 1013.1
16 01:55 SW 21 10.00 Fair and Breezy CLR 58.6 49.3 71% 29.91 1013.5
16 00:55 SW 22 10.00 Fair and Breezy CLR 59.5 48.9 68% 29.9 1013.1
15 23:55 SW 21 10.00 Fair and Breezy CLR 61.5 48.7 63% 29.89 1012.8
15 22:55 SW 23 10.00 Fair and Breezy CLR 65.3 49.3 83.1 64.6 56% 29.88 1012.5
15 21:55 SW 22 10.00 Fair and Breezy CLR 65.1 49.5 57% 29.9 1013.2
15 20:55 SW 21 10.00 Fair and Breezy CLR 66.4 51.6 59% 29.9 1013.2
15 19:55 SW 25 10.00 Fair and Breezy CLR 71.4 52.9 52% 29.89 1012.8
15 18:55 SW 28 G 31 10.00 Fair and Windy CLR 75.9 52.3 44% 78 29.88 1012.5
15 17:55 SW 21 G 29 10.00 Fair and Breezy CLR 80.2 53.1 39% 80 29.89 1012.8
15 16:55 SW 24 10.00 Fair and Breezy CLR 83.1 52.5 86.2 72.9 35% 82 29.9 1013.1
15 15:55 SW 25 10.00 Fair and Breezy CLR 84.9 51.8 32% 83 29.91 1013.5
15 14:55 SW 24 10.00 Fair and Breezy CLR 85.8 52.5 32% 84 29.93 1014.2
15 13:55 SW 21 10.00 Fair and Breezy CLR 82.2 50.2 33% 81 29.94 1014.5
15 12:55 SW 24 10.00 A Few Clouds and Breezy FEW200 80.1 50.7 36% 80 29.97 1015.5
15 11:55 SW 23 10.00 A Few Clouds and Breezy FEW200 76.5 50.4 40% 78 29.98 1015.9
15 10:55 SW 25 10.00 Fair and Breezy CLR 73 51.1 73 56.8 46% 29.99 1016.2
15 09:55 W 26 G 33 10.00 Fair and Windy CLR 67.6 50.9 55% 29.99 1016.2
15 08:55 SW 29 10.00 Fair and Windy CLR 64 52 65% 29.99 1016.2
Date Time (pdt) Wind (mph) Vis. (mi.) Weather Sky Cond. Air Dwpt Max. Min. Relative Humidity Wind Chill (°F) Heat Index (°F) altimeter (in) sea level (mb) 1 hr 3 hr 6 hr
6 hour
Temperature (ºF) Pressure Precipitation (in)